FW3734 Weather Reports


time (UTC)temp
C
wind
direction
speed
KPH
gust
KPH
rain 1hr
cm
rain 24hr
cm
rain mn
cm
humidity
%
barometer
mb
20260905061508 27 261 0.0 0.0 0.00 0.00 0.00 73 1012.4
20260905060007 28 261 0.0 0.0 0.00 0.00 0.00 74 1012.4
20260905054506 28 261 0.0 0.0 0.00 0.00 0.00 73 1012.4
20260905053004 28 261 0.0 0.0 0.00 0.00 0.00 72 1012.5
20260905051504 28 261 0.0 0.0 0.00 0.00 0.00 71 1012.6
20260905050101 28 261 0.0 0.0 0.00 0.00 0.00 70 1012.5
20260905044600 28 261 0.0 0.0 0.00 0.00 0.00 70 1012.4
20260905043100 28 261 0.0 0.0 0.00 0.00 0.00 70 1012.4
20260905041559 28 261 0.0 0.0 0.00 0.00 0.00 71 1012.4
20260905040058 29 261 0.0 0.0 0.00 0.00 0.00 71 1012.4
20260905034558 29 261 0.0 0.0 0.00 0.00 0.00 69 1012.4
20260905033100 30 261 0.0 0.0 0.00 0.00 0.00 67 1012.5
20260905031600 30 261 0.0 0.0 0.00 0.00 0.00 64 1012.4
20260905030104 30 261 0.0 0.0 0.00 0.00 0.00 63 1012.5
20260905024630 30 261 0.0 0.0 0.00 0.00 0.00 63 1012.4
20260905023059 31 261 0.0 0.0 0.00 0.00 0.00 62 1012.2
20260905021555 31 261 0.0 0.0 0.00 0.00 0.00 61 1012.2
20260905020055 31 261 0.0 0.0 0.00 0.00 0.00 61 1012.0
20260905014557 31 261 0.0 0.0 0.00 0.00 0.00 58 1011.8
20260905013055 32 261 0.0 0.0 0.00 0.00 0.00 56 1011.7
20260905011559 32 261 0.0 0.0 0.00 0.00 0.00 55 1011.5
20260905010054 33 261 0.0 0.0 0.00 0.00 0.00 54 1011.3
20260905004559 33 261 0.0 0.0 0.00 0.00 0.00 51 1011.4
20260905003052 35 261 0.0 0.0 0.00 0.00 0.00 50 1011.4
20260905001552 35 261 0.0 0.0 0.00 0.00 0.00 47 1011.3
20260905000051 35 261 0.0 0.0 0.00 0.00 0.00 46 1011.3
20260904234552 36 261 0.0 0.0 0.00 0.00 0.00 45 1011.2
20260904233101 36 261 0.0 0.0 0.00 0.00 0.00 45 1011.2
20260904231551 36 257 0.0 0.0 0.00 0.00 0.00 45 1011.0
20260904230049 36 232 0.0 0.0 0.00 0.00 0.00 45 1011.1
20260904224548 36 229 0.0 0.0 0.00 0.00 0.00 42 1011.1
20260904223047 37 203 0.0 1.6 0.00 0.00 0.00 41 1011.1
20260904221548 37 216 0.0 4.8 0.00 0.00 0.00 40 1011.2
20260904220044 37 286 0.0 1.6 0.00 0.00 0.00 42 1011.3
20260904214547 37 238 0.0 4.8 0.00 0.00 0.00 41 1011.5
20260904213041 37 251 0.0 4.8 0.00 0.00 0.00 41 1011.7
20260904211539 37 216 0.0 1.6 0.00 0.00 0.00 41 1011.8
20260904210042 37 313 0.0 4.8 0.00 0.00 0.00 40 1012.0
20260904204535 37 172 0.0 1.6 0.00 0.00 0.00 39 1012.2
20260904203034 37 202 0.0 6.4 0.00 0.00 0.00 39 1012.5
20260904201531 37 294 0.0 6.4 0.00 0.00 0.00 42 1012.6
20260904200031 36 237 0.0 4.8 0.00 0.00 0.00 44 1012.9
20260904194527 36 241 0.0 9.7 0.00 0.00 0.00 44 1013.1
20260904193029 36 286 0.0 6.4 0.00 0.00 0.00 45 1013.3
20260904191521 36 233 0.0 3.2 0.00 0.00 0.00 45 1013.5
20260904190015 35 19 0.0 3.2 0.00 0.00 0.00 46 1013.6
20260904184521 35 243 0.0 1.6 0.00 0.00 0.00 47 1013.7
20260904183017 35 231 0.0 0.0 0.00 0.00 0.00 49 1013.7
20260904181513 35 256 0.0 3.2 0.00 0.00 0.00 47 1013.9
20260904180011 35 200 1.6 17.7 0.00 0.00 0.00 49 1013.9
20260904174510 35 225 0.0 14.5 0.00 0.00 0.00 48 1014.1
20260904173009 35 323 0.0 14.5 0.00 0.00 0.00 48 1014.3
20260904171509 35 192 0.0 12.9 0.00 0.00 0.00 48 1014.4
20260904170006 35 283 1.6 14.5 0.00 0.00 0.00 49 1014.5
20260904164504 34 239 1.6 14.5 0.00 0.00 0.00 50 1014.6
20260904163001 34 315 0.0 3.2 0.00 0.00 0.00 53 1014.7
20260904161602 33 265 0.0 4.8 0.00 0.00 0.00 53 1014.6
20260904160057 33 231 0.0 0.0 0.00 0.00 0.00 57 1014.7
20260904154553 32 303 0.0 4.8 0.00 0.00 0.00 59 1014.7
20260904153059 32 286 0.0 6.4 0.00 0.00 0.00 60 1014.7
20260904151545 31 247 3.2 12.9 0.00 0.00 0.00 61 1014.7
20260904150046 31 327 0.0 1.6 0.00 0.00 0.00 62 1014.5
20260904144539 31 339 0.0 4.8 0.00 0.00 0.00 64 1014.5
20260904143036 30 229 0.0 4.8 0.00 0.00 0.00 65 1014.3
20260904141534 30 226 0.0 8.0 0.00 0.00 0.00 67 1014.3
20260904140031 28 248 0.0 3.2 0.00 0.00 0.00 71 1014.3
20260904134531 28 280 0.0 3.2 0.00 0.00 0.00 72 1014.4
20260904133030 27 289 0.0 4.8 0.00 0.00 0.00 74 1014.4
20260904131529 27 274 0.0 0.0 0.00 0.00 0.00 75 1014.3
20260904130029 26 200 0.0 0.0 0.00 0.00 0.00 76 1014.4
20260904124527 26 200 0.0 0.0 0.00 0.00 0.00 78 1014.4
20260904123026 26 248 0.0 0.0 0.00 0.00 0.00 78 1014.1
20260904121525 25 248 0.0 0.0 0.00 0.00 0.00 79 1014.0
20260904120023 25 248 0.0 0.0 0.00 0.00 0.00 78 1014.0
20260904114535 26 248 0.0 0.0 0.00 0.00 0.00 77 1013.9
20260904113019 26 248 0.0 0.0 0.00 0.00 0.00 76 1013.7
20260904111515 26 248 0.0 0.0 0.00 0.00 0.00 75 1013.5
20260904110022 26 248 0.0 1.6 0.00 0.00 0.00 74 1013.4
20260904104513 26 281 0.0 0.0 0.00 0.00 0.00 74 1013.3
20260904103011 26 281 0.0 0.0 0.00 0.00 0.00 73 1013.1
20260904101516 26 281 0.0 0.0 0.00 0.00 0.00 73 1013.0
20260904100008 26 208 0.0 0.0 0.00 0.00 0.00 73 1012.9
20260904094506 27 208 0.0 0.0 0.00 0.00 0.00 73 1013.0
20260904093004 27 208 0.0 0.0 0.00 0.00 0.00 72 1012.9
20260904091502 27 208 0.0 0.0 0.00 0.00 0.00 70 1012.8
20260904090058 27 208 0.0 0.0 0.00 0.00 0.00 70 1012.7
20260904084559 27 208 0.0 0.0 0.00 0.00 0.00 70 1012.6
20260904083100 27 208 0.0 0.0 0.00 0.00 0.00 70 1012.6
20260904081556 27 208 0.0 0.0 0.00 0.00 0.00 70 1012.6
20260904080054 28 208 0.0 0.0 0.00 0.00 0.00 70 1012.5
20260904074615 28 208 0.0 0.0 0.00 0.00 0.00 69 1012.5
20260904073051 28 208 0.0 0.0 0.00 0.00 0.00 69 1012.5
20260904071551 28 208 0.0 0.0 0.00 0.00 0.00 68 1012.5
20260904070048 28 208 0.0 0.0 0.00 0.00 0.00 68 1012.5
20260904064547 28 208 0.0 0.0 0.00 0.00 0.00 68 1012.5
20260904063103 28 208 0.0 0.0 0.00 0.00 0.00 68 1012.6